Location: Hepcat Sky Observatory
(29.9800°N, 95.6500°W)
Time: 02:50:23
(UTC-05:00)

Cosmos 2366 rocket - Visible Passes

Search period start: 04 September 2015 00:00
Search period end: 14 September 2015 00:00
Orbit: 954 x 998 km, 82.9° (Epoch: 02 September)

Date Brightness Start Highest point End Pass type
(mag) Time Alt. Az. Time Alt. Az. Time Alt. Az.
05 Sep 6.7 00:15:25 10° NNW 00:15:30 10° NNW 00:15:30 10° NNW visible
06 Sep 6.5 23:21:28 10° N 23:21:48 12° N 23:21:48 12° N visible
07 Sep 6.6 23:46:58 10° N 23:47:19 12° N 23:47:19 12° N visible
09 Sep 6.4 22:53:11 10° N 22:53:41 12° N 22:53:41 12° N visible
10 Sep 6.4 23:18:34 10° N 23:19:14 13° N 23:19:14 13° N visible
11 Sep 6.7 23:44:27 10° NNW 23:44:48 12° NNW 23:44:48 12° NNW visible
12 Sep 6.2 22:24:57 10° NNE 22:25:41 13° NNE 22:25:41 13° NNE visible
13 Sep 6.2 22:50:11 10° N 22:51:17 16° N 22:51:17 16° N visible
